User: anonymous   Login
Location: Caracas
(10.5033°N, 66.8422°W)
Time: 15:19:15
(UTC-04:00)
Language:

M-CUBED/EXP-1 PRIME - Orbit

View from above orbital plane
View from above orbital plane
View from above satellite
View from above satellite

Ground track
Ground track

The orbit data is extracted from the following two-line orbital elements,

1 37855U 11061F   19083.52377166  .00000940  00000-0  55249-4 0  9997
2 37855 101.7267 294.8416 0174222 332.1959  27.0022 15.05211347403816
Epoch (UTC): 24 March 2019 12:34:13
Eccentricity: 0.0174222
inclination: 101.7267°
perigee height: 430 km
apogee height: 671 km
right ascension of ascending node: 294.8416°
argument of perigee: 332.1959°
revolutions per day: 15.05211347
mean anomaly at epoch: 27.0022°
orbit number at epoch: 40381

The dashed part of the orbit path shows where the satellite is in the earth's shadow,  

DLR